sat.trackr.live / text

‹ back to catalog

STARLINK-3314

NORAD 50851 · 2022-001BA

PAYLOAD ACTIVE UNKNOWN

§ Identity

Operator
Country
US
Launch date
2022-01-06
Launch site
AFETR
Launch vehicle
Mass (kg)
RCS (m²)

Purposes: comms

External: N2YO · Heavens-Above · Gunter

§ Orbital elements

Epoch: 2026-09-19T22:35:03.723648Z

Period
93.90 min
Inclination
53.1614°
Eccentricity
0.0001009
Mean motion
15.33549073 rev/d
Perigee alt
464.5 km
Apogee alt
465.9 km
Semi-major
6,843.4 km
B*
2.6364e-5
RAAN
12.4616°
Arg perigee
83.4787°
Mean anomaly
276.6330°
Rev number
25,979

§ Raw data

STARLINK-33141 50851U 22001BA  26262.94101532  .00000495  00000+0  26364-4 0  99992 50851  53.1614  12.4616 0001009  83.4787 276.6330 15.33549073259797

JSON: /api/v1/satellites/50851 · /tle

For live sub-satellite position, see the globe view (requires WebGL).

§ Visibility from observer

Set your observer location to see the next 7 days of passes ≥ 10°. The values pass through the URL so the page stays shareable.

No JS? Fill the form by hand. The geolocation button needs JavaScript.